| time (UTC) | temp F | wind direction | speed knots | gust knots | rain 1hr in | rain 24hr in | rain mn in | humidity % | barometer mb |
| 20260504004558 | 49 | 200 | 0.9 | 6.1 | 0.00 | 0.01 | 0.01 | 50 | 1009.9 |
| 20260504003054 | 50 | 302 | 4.3 | 10.4 | 0.00 | 0.01 | 0.01 | 49 | 1009.8 |
| 20260504001609 | 51 | 311 | 3.5 | 13.9 | 0.00 | 0.01 | 0.01 | 47 | 1009.8 |
| 20260504000058 | 51 | 343 | 6.1 | 14.8 | 0.00 | 0.01 | 0.01 | 46 | 1009.4 |
| 20260503234554 | 51 | 281 | 5.2 | 13.9 | 0.00 | 0.01 | 0.01 | 45 | 1009.2 |
| 20260503233059 | 51 | 297 | 5.2 | 14.8 | 0.00 | 0.01 | 0.01 | 44 | 1009.1 |
| 20260503231555 | 52 | 283 | 2.6 | 7.0 | 0.00 | 0.01 | 0.01 | 42 | 1009.0 |
| 20260503230051 | 52 | 316 | 8.7 | 18.2 | 0.00 | 0.01 | 0.01 | 40 | 1009.2 |
| 20260503224553 | 52 | 287 | 7.8 | 14.8 | 0.00 | 0.01 | 0.01 | 38 | 1009.0 |
| 20260503223052 | 52 | 281 | 4.3 | 13.9 | 0.00 | 0.01 | 0.01 | 35 | 1008.9 |
| 20260503221553 | 52 | 312 | 3.5 | 9.6 | 0.00 | 0.01 | 0.01 | 35 | 1008.7 |
| 20260503220050 | 53 | 326 | 7.8 | 20.0 | 0.00 | 0.01 | 0.01 | 32 | 1008.5 |
| 20260503214555 | 53 | 304 | 4.3 | 13.0 | 0.00 | 0.01 | 0.01 | 31 | 1008.4 |
| 20260503213117 | 53 | 295 | 8.7 | 19.1 | 0.00 | 0.01 | 0.01 | 30 | 1008.6 |
| 20260503211619 | 54 | 207 | 6.1 | 17.4 | 0.00 | 0.01 | 0.01 | 30 | 1008.2 |
| 20260503210052 | 54 | 279 | 6.1 | 12.2 | 0.00 | 0.01 | 0.01 | 28 | 1008.3 |
| 20260503204603 | 53 | 326 | 2.6 | 10.4 | 0.01 | 0.01 | 0.01 | 33 | 1008.3 |
| 20260503203050 | 52 | 288 | 7.8 | 14.8 | 0.01 | 0.01 | 0.01 | 31 | 1008.6 |
| 20260503201553 | 52 | 285 | 6.1 | 16.5 | 0.01 | 0.01 | 0.01 | 33 | 1008.7 |
| 20260503200052 | 52 | 239 | 5.2 | 18.2 | 0.01 | 0.01 | 0.01 | 33 | 1008.9 |
| 20260503194551 | 53 | 265 | 7.8 | 19.1 | 0.00 | 0.00 | 0.00 | 35 | 1008.7 |
| 20260503193050 | 52 | 297 | 7.0 | 17.4 | 0.00 | 0.00 | 0.00 | 33 | 1008.7 |
| 20260503191603 | 51 | 305 | 8.7 | 18.2 | 0.00 | 0.00 | 0.00 | 35 | 1008.9 |
| 20260503190054 | 50 | 330 | 5.2 | 16.5 | 0.00 | 0.00 | 0.00 | 37 | 1009.3 |
| 20260503184630 | 50 | 295 | 6.1 | 15.6 | 0.00 | 0.00 | 0.00 | 38 | 1009.5 |
| 20260503183059 | 49 | 338 | 7.0 | 14.8 | 0.00 | 0.00 | 0.00 | 39 | 1009.6 |
| 20260503181552 | 49 | 328 | 4.3 | 11.3 | 0.00 | 0.00 | 0.00 | 41 | 1009.8 |
| 20260503180056 | 48 | 343 | 7.8 | 18.2 | 0.00 | 0.00 | 0.00 | 41 | 1009.8 |
| 20260503174610 | 48 | 277 | 3.5 | 13.9 | 0.00 | 0.00 | 0.00 | 40 | 1010.1 |
| 20260503173118 | 47 | 311 | 10.4 | 19.1 | 0.00 | 0.00 | 0.00 | 43 | 1010.1 |
| 20260503171554 | 46 | 67 | 6.1 | 16.5 | 0.00 | 0.00 | 0.00 | 41 | 1010.2 |
| 20260503090104 | 36 | 188 | 0.0 | 3.5 | 0.00 | 0.01 | 0.00 | 71 | 1009.9 |
| 20260503081559 | 37 | 287 | 1.7 | 6.1 | 0.00 | 0.01 | 0.00 | 70 | 1010.3 |
| 20260503071610 | 37 | 0 | 0.0 | 3.5 | 0.00 | 0.02 | 0.00 | 70 | 1010.3 |
| 20260503070110 | 38 | 273 | 2.6 | 9.6 | 0.00 | 0.02 | 0.00 | 69 | 1010.3 |
| 20260503060107 | 39 | 311 | 1.7 | 7.0 | 0.00 | 0.07 | 0.00 | 66 | 1010.8 |
| 20260503054558 | 39 | 310 | 5.2 | 10.4 | 0.00 | 0.08 | 0.00 | 65 | 1011.0 |
| 20260503053055 | 39 | 271 | 3.5 | 10.4 | 0.00 | 0.08 | 0.00 | 65 | 1011.2 |
| 20260503051600 | 39 | 339 | 4.3 | 11.3 | 0.00 | 0.08 | 0.00 | 65 | 1011.3 |
| 20260503044556 | 40 | 307 | 2.6 | 13.0 | 0.00 | 0.08 | 0.00 | 66 | 1011.5 |
| 20260503043102 | 39 | 308 | 0.9 | 2.6 | 0.00 | 0.08 | 0.00 | 68 | 1011.5 |
| 20260503041555 | 37 | 302 | 0.0 | 0.9 | 0.00 | 0.08 | 0.00 | 71 | 1011.6 |
| 20260503040058 | 38 | 300 | 0.0 | 4.3 | 0.00 | 0.08 | 0.00 | 71 | 1011.5 |
| 20260503034554 | 37 | 0 | 0.9 | 1.7 | 0.00 | 0.11 | 0.08 | 73 | 1011.6 |
| 20260503033058 | 36 | 0 | 0.0 | 2.6 | 0.00 | 0.11 | 0.08 | 74 | 1011.6 |
| 20260503031552 | 36 | 262 | 0.0 | 0.9 | 0.00 | 0.11 | 0.08 | 75 | 1011.7 |
| 20260503030052 | 36 | 0 | 0.0 | 1.7 | 0.00 | 0.11 | 0.08 | 74 | 1011.8 |
| 20260503024558 | 36 | 0 | 0.0 | 1.7 | 0.00 | 0.11 | 0.08 | 74 | 1012.0 |
| 20260503023052 | 37 | 321 | 0.0 | 1.7 | 0.00 | 0.11 | 0.08 | 71 | 1012.0 |
| 20260503021553 | 37 | 0 | 0.0 | 1.7 | 0.00 | 0.11 | 0.08 | 69 | 1012.1 |
| 20260503020052 | 39 | 0 | 0.0 | 1.7 | 0.00 | 0.11 | 0.08 | 66 | 1012.0 |
| 20260503014625 | 40 | 225 | 0.9 | 2.6 | 0.00 | 0.11 | 0.08 | 63 | 1011.9 |
| 20260503013052 | 41 | 0 | 0.9 | 2.6 | 0.00 | 0.11 | 0.08 | 62 | 1012.0 |
| 20260503011620 | 43 | 310 | 1.7 | 5.2 | 0.00 | 0.11 | 0.08 | 55 | 1012.0 |
| 20260503010056 | 43 | 225 | 0.0 | 3.5 | 0.00 | 0.11 | 0.08 | 55 | 1011.8 |